Location: City of Moscow
(46.7306°N, 116.9989°W)
Time: 07:03:42
(UTC+00:00)

USA 234 - Pass Details

Date: 12 March 2026
Orbit: 1102 x 1106 km, 123.0° (Epoch: 4 January)

Event Time Altitude Azimuth Distance (km) Brightness Sun altitude
Exits shadow 06:00:13 38° 285° (WNW) 1,635 4.3 -39.6°
Drops below altitude 10° 06:04:11 10° 303° (WNW) 2,969 6.1 -40.1°
Sets 06:06:43 0° 307° (NW) 3,930 7.0 -40.3°
